Location: Bakhuizen
(52.8696°N, 5.4575°E)
Time: 03:19:52
(UTC+00:00)

Cosmos 773 Rocket - Pass Details

Date: 01 October 2021
Orbit: 745 x 777 km, 74.1° (Epoch: 26 October)

Event Time Altitude Azimuth Distance (km) Brightness Sun altitude
Rises 18:09:39 0° 328° (NNW) 3,252 7.8 -9.1°
Reaches altitude 10° 18:12:13 10° 319° (NW) 2,326 7.2 -9.5°
Maximum altitude 18:16:52 33° 258° (WSW) 1,298 6.0 -10.2°
Drops below altitude 10° 18:21:31 10° 196° (SSW) 2,322 6.6 -10.9°
Sets 18:24:06 0° 187° (S) 3,247 7.2 -11.3°
